Location: Monrovia
(34.7865°N, 86.7139°W)
Time: 21:08:36
(UTC+00:00)

Cosmos 1975 - Pass Details

Date: 14 July 2020
Orbit: 542 x 561 km, 82.5° (Epoch: 08 August)

Event Time Altitude Azimuth Distance (km) Brightness Sun altitude
Exits shadow 08:33:09 20° 137° (SE) 1,284 4.6 -22.0°
Maximum altitude 08:35:04 30° 91° (E) 982 4.4 -21.7°
Drops below altitude 10° 08:38:35 10° 29° (NNE) 1,813 6.6 -21.3°
Sets 08:40:54 0° 19° (NNE) 2,709 7.5 -20.9°
